PSLV R/B - Orbit

View from above orbital plane
View from above orbital plane
View from above satellite
View from above satellite

Ground track
Ground track

The orbit data is extracted from the following two-line orbital elements,

1 28651U 05017C   13168.54166705  .00000385  00000-0  67408-4 0  5405
2 28651 097.7774 123.1809 0078728 088.4965 042.9774 14.71132534435625
Epoch (UTC): 17 June 2013 13:00:00
Eccentricity: 0.0078728
inclination: 97.7774°
perigee height: 602 km
apogee height: 713 km
right ascension of ascending node: 123.1809°
argument of perigee: 88.4965°
revolutions per day: 14.71132534
mean anomaly at epoch: 42.9774°
orbit number at epoch: 43562

The dashed part of the orbit path shows where the satellite is in the earth's shadow,  

Developed and maintained by Chris Peat, Heavens-Above GmbH. Please read the updated FAQ before sending e-mail. Imprint. DLR